Dewpoint
-14 -14 -14 -13 -13 -12 -10 -8 -7 -6 -6 -6 -3 -3 -4 -7 -8 -9 -10 -10 -11 -12 -10 -10 -10 -9 -9 -6 -7 -6 -6 -6 -5 -5 -4 -1 3 3 2 2 3 3 1 1 1 2 2
-14 -13 -14 -14 -14 -14 -15 -15 -13 -11 -9 -8 -7 -6 -4 -3 -6 -8 -8 -9 -10 -11 -12 -10 -10 -10 -9 -6 -8 -7 -6 -5 -5 -5 -4 0 3 3 3 3 3 3 3 3 2 1 1
-12 -11 -12 -12 -13 -13 -14 -14 -14 -14 -14 -13 -12 -10 -9 -7 -5 -7 -7 -7 -8 -8 -10 -11 -10 -10 -9 -8 -8 -6 -5 -5 -5 -4 -3 0 2 4 4 3 4 4 4 -1 -2 -2 -1
-11 -10 -10 -10 -11 -11 -11 -11 -12 -12 -12 -12 -13 -13 -12 -11 -10 -6 -6 -6 -6 -7 -8 -9 -9 -9 -9 -9 -7 -4 -5 -5 -5 -3 -1 1 2 5 5 4 3 1 1 -0 -5 -2 -2
-11 -12 -12 -12 -12 -13 -13 -13 -14 -14 -14 -15 -15 -15 -14 -14 -12 -8 -6 -7 -7 -6 -7 -9 -8 -8 -6 -6 -5 -5 -6 -5 -4 -1 -1 2 4 4 4 2 -2 -1 0 -0 -1 -2 -2
-9 -10 -12 -13 -15 -16 -17 -18 -19 -19 -19 -20 -20 -20 -19 -18 -15 -8 -9 -9 -7 -7 -5 -5 -6 -5 -7 -6 -6 -5 -5 -4 -2 -1 2 4 3 2 1 -3 -2 -2 -1 -2 -1 -4 -3
4 -5 -12 -14 -15 -17 -18 -19 -20 -21 -22 -22 -22 -23 -23 -23 -22 -11 -11 -10 -8 -7 -6 -7 -5 -6 -6 -6 -7 -4 -4 -3 -1 -1 -3 0 -1 -3 -5 -3 -3 -2 -1 -1 -3 -4 -3
0 -4 -5 -8 -8 -9 -11 -13 -15 -17 -18 -20 -22 -23 -24 -25 -24 -13 -14 -9 -6 -5 -0 -4 -6 -6 -5 -6 -5 -5 -4 -1 -2 -2 -3 -2 -3 -5 -3 -2 -1 -1 -1 -2 -5 -4 -3
1 1 0 -1 -3 -5 -6 -8 -8 -9 -11 -12 -13 -18 -21 -23 -23 -21 -14 -8 -5 -3 2 -2 -5 -5 -5 -4 -4 -4 -2 -2 -2 -2 -3 -2 -4 -3 -3 -4 -2 -4 -2 -4 -3 -3 -1
0 -1 -2 -2 -3 -4 -5 -5 -6 -6 -7 -8 -8 -9 -12 -18 -17 -23 -8 -8 -5 -0 2 -2 -2 -3 -4 -3 -3 -3 -2 -2 -2 -3 -3 -2 -4 -4 -4 -3 -3 -3 -4 -3 -2 -0 3
-0 -4 -8 -13 -12 -15 -11 -9 -9 -9 -9 -7 -7 -7 -7 -7 -13 -19 -12 -9 -3 -0 7 -3 -3 -4 -3 -2 -3 -3 -1 -1 -2 -4 -2 -3 -4 -3 -3 -4 -3 -3 -3 -2 -1 1 2
-21 -29 -30 -30 -29 -29 -30 -30 -27 -24 -23 -22 -19 -14 -11 -9 -7 -12 -18 -9 -0 4 5 -5 -4 -3 -2 -2 -2 -1 -1 -1 -1 -1 -2 -2 -2 -2 -4 -3 -3 -3 -3 -3 -1 -2 3
-27 -29 -29 -29 -29 -29 -31 -32 -34 -34 -35 -35 -34 -32 -24 -16 -7 -6 -13 -4 2 6 -6 -5 -3 -3 -4 -4 -3 -1 -2 -2 -2 3 -2 -5 -5 -4 -2 -3 -4 -3 -3 3 -0 2 -4
-4 -12 -16 -16 -19 -25 -27 -30 -32 -33 -34 -35 -35 -35 -29 -20 -14 -5 -10 -3 -4 -6 -9 -6 -4 -4 -4 -4 -4 -3 -2 -3 -4 -4 -2 2 2 -5 -3 -4 -3 -2 -2 -1 -2 -3 -3
-15 -2 -4 -14 -22 -24 -27 -29 -31 -31 -32 -34 -34 -33 -24 -10 -6 -4 -2 1 1 -10 -11 -4 -4 -3 -5 -3 -4 -5 -4 -4 -6 -5 -4 -3 -5 -6 -5 -5 -3 -2 -1 -2 -1 -1 2
-17 -9 -13 -19 -19 -22 -23 -26 -29 -31 -33 -34 -29 -16 -5 -3 -2 -2 -3 -3 -10 -7 -3 -5 -6 -7 -9 -6 -4 -4 -5 -7 -5 -4 -9 -7 -5 -6 -4 -3 -2 -2 -4 0 -0 1 -3
-14 -15 -13 -14 -15 -17 -19 -20 -23 -29 -32 -32 -27 -8 1 2 0 1 0 -2 -3 -3 -2 -4 -5 -6 -9 -10 -5 -5 -7 -8 -6 -4 -7 -6 -5 -5 -5 -3 -4 -1 -1 -2 -3 -2 -1
-14 -11 -9 -8 -9 -11 -14 -19 -19 -23 -31 -30 -17 -4 1 2 1 0 1 -0 0 0 -2 -2 -3 -3 -4 -5 -5 -4 -6 -7 -5 -4 -4 -6 -5 -3 -6 -6 -6 -5 -5 -3 -3 -2 -2
-7 -6 -6 -5 -5 -6 -8 -11 -17 -18 -19 -14 -2 -2 1 1 -1 -0 0 -0 -1 -2 -3 -2 -2 -2 -3 -4 -6 -7 -5 -4 -4 -4 -4 -4 -3 -1 -5 -5 -4 -4 -4 -4 -4 -3 -2
-3 -3 -3 -3 -3 -3 -5 -7 -9 -17 -17 -8 -1 -1 -1 1 0 0 0 0 1 -1 -1 -1 -2 -1 -0 -1 -3 -4 -4 -3 -2 -4 -4 -4 -3 -4 -5 -7 -5 -3 -4 -3 -3 -1 -2
-6 -6 -6 -8 -7 -7 -5 -5 -7 -10 -14 -12 -3 -1 -2 -1 -1 -3 -1 0 -0 1 -2 -2 -2 -3 -1 2 0 -1 -0 -1 -2 -1 -3 -4 -1 -2 -3 -4 -4 -4 -4 -4 -3 -3 -1
-6 -4 -4 -4 -4 -5 -7 -8 -9 -7 -9 -10 -3 -3 -5 -6 -3 -3 -2 -1 -2 -3 -3 -2 -2 -4 -5 -2 -1 1 -1 -1 -0 -2 -1 -3 -1 -2 -1 -3 -3 -2 -3 -3 -3 -3 -3
-4 -6 -6 -5 -5 -6 -6 -6 -8 -8 -5 -5 -6 -7 -3 -6 -5 -5 -4 -5 -4 -6 -5 -4 -6 -7 -7 -7 -6 -7 -6 -5 -4 -2 -1 -1 1 1 1 -2 -2 -1 -2 -2 -3 -4 -5
-6 -6 -5 -5 -5 -5 -6 -5 -5 -6 -6 -3 -4 -5 -5 -9 -8 -9 -7 -8 -8 -6 -5 -6 -7 -6 -7 -9 -12 -12 -9 -7 -7 -7 -7 -4 0 1 2 -1 1 -5 -5 -4 -4 -4 -5
-6 -5 -6 -4 -4 -5 -6 -6 -6 -7 -6 -6 -4 -3 -4 -6 -7 -8 -7 -6 -7 -8 -8 -7 -6 -5 -9 -11 -8 -8 -7 -2 -3 -5 -5 -7 -6 -1 -0 -2 -5 -5 -6 -4 -3 -4 -5
-11 -7 -6 -5 -4 -5 -5 -6 -6 -10 -10 -5 -4 -4 -3 -4 -8 -8 -7 -7 -7 -8 -8 -8 -9 -11 -10 -11 -8 -6 -9 -6 -8 -3 -3 -3 -4 -3 -4 1 -2 -3 -5 -5 -5 -2 -6
-7 -7 -6 -5 -5 -5 -7 -7 -9 -8 -5 -6 -6 -4 -4 -4 -5 -6 -7 -8 -6 -7 -7 -8 -8 -9 -9 -11 -12 -11 -11 -9 -12 -8 -2 -0 0 1 -0 0 -3 -4 -5 -6 -3 -5 -5
-6 -6 -6 -8 -6 -7 -8 -8 -9 -9 -8 -5 -6 -6 -4 -4 -4 -4 -5 -6 -6 -6 -7 -8 -9 -9 -8 -6 -8 -7 -5 -5 -5 -6 -4 -2 -2 -1 0 2 1 -4 -5 -3 -3 -4 -4
-6 -6 -6 -6 -8 -8 -8 -7 -7 -7 -8 -7 -6 -7 -5 -4 -4 -4 -4 -6 -6 -6 -6 -5 -8 -9 -10 -7 -10 -12 -13 -13 -13 -11 -13 -8 -4 -6 -5 -2 -5 -10 -4 -6 -8 -6 -4
Wind_Speed
6 7 6 7 7 8 9 11 12 13 14 14 14 15 15 15 13 11 11 11 10 8 8 8 8 8 9 5 4 3 5 7 8 9 8 7 5 3 4 3 5 6 4 7 15 21 20
7 8 8 8 9 9 10 10 11 12 13 14 15 15 16 15 15 13 13 11 10 10 8 8 8 8 7 4 4 4 5 7 9 8 9 6 3 5 1 4 4 4 13 23 13 12 12
8 9 10 10 10 11 12 12 12 13 14 14 15 16 16 16 16 14 13 13 12 11 9 7 7 7 9 9 7 4 6 8 9 7 8 5 4 2 3 3 4 8 9 11 8 4 4
10 11 11 11 11 11 12 13 14 14 15 15 16 16 17 17 17 14 14 15 15 12 9 7 7 7 5 6 7 7 7 8 8 7 6 5 5 2 2 5 3 4 4 9 3 4 2
10 9 10 10 10 11 11 12 13 14 15 16 16 17 18 19 19 15 15 17 14 8 7 7 6 5 4 4 5 6 6 8 7 5 6 4 2 1 2 4 3 1 9 12 10 4 3
8 9 9 8 9 10 10 11 12 12 13 14 15 16 17 18 18 16 17 18 10 9 5 6 8 4 6 4 4 6 9 4 4 5 1 1 1 3 2 3 6 11 9 10 14 6 6
11 11 12 13 13 12 13 13 13 14 14 14 14 14 16 17 16 14 16 12 9 3 9 8 5 3 3 5 7 4 3 3 3 1 2 0 4 4 3 3 6 9 11 15 16 5 12
10 10 10 11 11 12 13 13 14 15 16 16 16 16 15 15 14 11 14 8 7 8 10 11 13 17 14 10 4 5 4 3 2 3 2 3 6 1 2 5 6 9 11 11 13 3 8
12 12 13 13 13 14 15 16 16 16 16 17 17 17 16 15 12 11 12 11 11 13 4 4 3 3 4 6 4 5 5 3 3 3 4 5 1 1 4 6 5 7 6 12 11 15 1
14 15 16 18 19 19 19 19 19 19 19 18 17 17 17 15 6 12 7 12 12 11 3 3 3 3 3 3 3 6 6 3 3 3 3 7 1 3 5 5 2 5 2 7 14 7 4
18 19 19 19 20 21 22 23 24 23 22 20 19 18 15 14 12 10 8 10 10 5 4 2 3 5 5 4 1 4 6 2 5 2 2 2 2 3 5 1 3 5 10 7 4 4 3
20 18 18 19 19 20 21 22 23 23 24 22 20 19 16 13 12 8 7 8 5 1 7 2 4 3 4 5 4 4 4 4 2 3 4 7 2 4 3 2 5 9 5 3 2 2 3
17 17 17 18 19 20 22 23 23 23 23 23 19 17 17 12 8 9 6 4 1 4 1 2 3 3 3 4 4 6 5 5 5 2 3 3 4 2 4 4 3 4 5 3 3 3 4
15 17 17 18 20 20 20 21 21 21 21 21 18 16 14 12 11 8 4 2 7 6 8 1 2 2 5 5 4 4 3 4 7 4 3 3 3 5 5 2 3 3 3 1 4 4 7
14 13 15 18 20 21 20 20 21 21 20 20 15 11 8 7 6 7 5 3 5 6 2 2 1 5 5 3 3 4 6 4 5 13 7 4 4 3 1 1 2 3 2 2 3 0 3
13 14 16 19 20 21 23 23 23 22 20 19 16 7 4 4 4 8 3 5 4 3 6 2 5 6 6 3 4 5 5 2 2 4 3 1 5 2 3 2 2 3 6 2 2 3 4
14 15 17 19 22 23 24 26 26 24 21 17 8 3 8 2 6 4 3 4 5 5 4 3 4 5 8 9 7 5 2 1 0 4 2 3 4 3 1 6 4 4 3 2 2 2 3
13 15 17 18 21 23 25 26 27 28 25 18 5 2 8 3 1 1 2 3 7 6 5 3 3 4 4 4 6 6 7 3 1 6 5 4 2 5 8 2 2 2 3 5 3 3 2
14 14 15 18 20 22 24 25 25 25 23 21 4 4 8 3 1 1 4 4 3 7 5 6 4 5 3 3 5 3 2 5 2 3 3 5 4 3 4 2 3 4 4 2 0 1 10
12 13 14 16 19 20 22 24 25 24 19 13 4 3 6 9 6 4 5 3 4 10 0 5 5 4 5 4 3 5 2 2 7 3 4 5 3 10 12 6 1 6 6 7 9 8 12
11 12 14 15 16 17 19 21 23 24 20 9 7 5 5 4 2 10 6 4 8 4 6 10 3 9 6 4 5 4 4 7 3 7 2 3 7 6 11 11 9 12 14 15 17 16 15
10 10 12 14 16 17 18 19 20 22 21 17 5 6 7 5 7 6 3 3 6 6 5 5 4 9 7 5 7 10 7 5 5 5 4 3 5 2 5 9 13 16 17 20 22 22 24
11 11 12 13 15 17 18 18 18 18 19 9 10 7 2 4 4 4 1 4 4 8 4 1 11 13 12 8 15 21 22 22 19 10 6 4 3 4 15 8 10 17 23 24 22 19 16
10 10 11 12 14 16 16 16 16 16 15 11 9 7 2 2 4 3 6 12 8 4 7 15 17 7 7 23 28 21 25 30 31 27 27 16 12 7 10 10 13 9 3 4 10 17 15
11 12 13 13 14 15 16 15 14 13 13 13 9 5 2 4 7 13 4 4 10 7 7 11 8 5 17 14 6 8 4 4 8 15 19 21 15 9 6 9 17 22 19 7 7 9 4
11 11 12 13 13 13 14 14 14 13 12 14 12 9 8 4 4 10 7 7 4 6 4 4 9 15 11 4 3 4 5 3 3 2 2 11 15 12 8 6 6 4 3 5 7 6 8
14 14 14 14 12 13 15 15 14 15 15 15 14 11 10 10 15 10 9 6 5 5 4 7 6 9 2 2 5 6 7 4 5 4 1 5 6 16 15 12 9 4 4 2 7 5 11
14 15 16 16 15 16 16 17 17 16 15 13 18 15 16 13 18 20 17 16 10 11 7 2 6 4 3 3 3 3 4 3 4 4 5 3 4 5 7 7 14 19 4 4 10 19 18
15 15 16 18 18 18 19 19 18 18 16 16 20 18 18 19 22 29 27 20 24 23 16 6 8 5 4 3 3 3 6 5 7 6 3 5 3 6 6 4 18 31 10 10 16 20 16
Wind_Direction
72 65 55 44 31 25 23 25 27 26 24 21 17 13 9 6 1 357 352 347 336 318 298 282 278 300 326 309 256 296 327 337 340 348 353 6 37 5 336 299 290 246 285 280 277 288 284
51 45 35 30 24 23 22 21 20 21 19 16 12 7 4 1 358 351 349 344 337 327 307 291 279 284 299 277 244 276 310 326 329 334 344 359 9 339 290 291 278 303 290 287 290 279 270
47 39 35 31 26 20 15 14 14 13 12 10 8 5 0 356 352 344 344 338 328 317 304 287 274 279 286 269 238 263 302 311 317 316 329 324 337 350 313 282 296 293 300 299 255 278 283
41 36 31 28 24 19 14 9 5 3 3 3 1 0 359 355 349 343 338 334 323 308 290 278 270 276 257 255 239 260 292 303 309 309 317 310 316 285 215 291 261 286 266 330 349 286 221
45 36 29 24 18 13 9 6 2 359 358 357 356 355 355 354 351 345 339 333 323 310 284 270 272 262 257 235 234 256 275 293 293 301 318 311 330 265 249 297 250 261 319 324 316 210 284
42 28 18 11 6 1 358 355 353 352 351 351 352 352 351 352 352 348 346 339 331 316 293 288 251 263 226 215 230 269 285 265 273 295 314 270 241 262 222 311 337 311 312 310 301 321 286
30 16 7 4 359 354 350 347 346 343 341 341 342 347 347 348 349 351 353 354 350 327 303 244 253 265 207 239 279 255 230 255 267 219 260 342 260 263 330 259 285 285 282 293 296 319 317
12 8 357 355 351 345 340 337 336 337 336 335 335 336 340 342 345 351 352 16 359 311 305 276 254 248 257 268 250 232 213 215 227 273 270 230 249 146 292 258 246 263 289 314 304 252 313
5 0 353 345 338 332 328 327 329 331 328 328 329 331 334 337 336 348 351 3 350 341 277 292 253 232 220 213 245 210 193 205 242 244 226 259 352 232 255 290 265 294 264 326 306 316 257
347 342 335 329 326 322 318 316 318 318 316 318 322 323 328 334 326 337 341 344 342 342 298 198 197 198 192 215 263 212 206 211 218 280 272 261 355 256 276 269 268 304 238 311 309 321 331
330 326 325 323 321 316 314 316 316 315 310 311 312 312 317 322 314 322 321 331 336 345 325 126 173 175 183 192 263 219 216 223 245 214 237 290 242 260 283 259 199 286 324 304 277 293 308
332 331 329 328 325 323 323 320 318 315 311 310 309 305 301 301 305 296 315 324 341 284 248 223 154 205 194 188 197 169 187 220 250 262 228 264 263 242 268 270 226 306 281 231 240 284 285
338 342 342 341 340 341 336 334 332 328 323 317 315 309 300 291 276 284 299 307 281 208 5 200 229 193 254 199 214 193 187 196 224 237 238 212 210 209 224 276 176 295 305 325 311 322 308
10 4 5 3 3 0 353 347 342 338 330 322 321 313 299 284 263 256 235 224 219 231 237 95 155 168 242 178 202 188 222 245 220 230 255 236 261 186 162 267 324 29 327 325 296 313 316
14 23 12 9 9 4 360 355 350 348 341 328 327 315 298 285 256 197 180 211 229 226 321 200 146 225 227 220 235 204 228 248 220 192 216 198 247 138 194 156 261 132 217 18 269 168 269
28 22 13 12 9 8 7 3 357 355 350 341 340 333 0 311 207 168 212 238 255 311 333 292 250 217 267 209 222 213 209 167 206 203 319 182 278 160 117 168 113 264 138 213 212 276 282
25 21 15 15 14 12 9 6 2 357 358 352 357 65 13 66 135 158 234 266 303 321 329 284 281 275 268 279 241 221 261 168 156 154 190 185 238 178 189 205 206 165 200 189 283 257 279
20 17 14 12 12 11 9 7 4 359 0 7 30 62 22 103 179 112 220 324 316 314 346 322 289 279 265 269 258 255 255 247 225 169 191 188 230 244 258 84 351 316 262 218 246 185 247
14 13 13 10 6 7 6 9 7 4 6 6 26 353 23 45 298 337 338 301 285 346 346 348 328 6 354 301 299 240 253 1 297 219 206 176 215 253 220 176 128 227 192 209 95 252 246
2 357 356 354 356 357 360 5 10 9 6 13 21 9 5 52 60 355 342 297 330 329 239 6 353 29 347 286 262 286 296 15 328 302 294 188 231 252 261 302 7 260 245 230 245 262 263
328 329 331 337 340 345 350 356 6 12 15 22 38 49 19 341 30 333 310 309 307 327 353 21 79 37 1 300 311 282 5 338 330 2 2 321 259 245 260 270 276 270 270 261 247 251 258
351 353 357 358 358 351 347 347 353 7 19 42 59 2 347 316 320 309 302 16 22 345 346 332 5 342 328 284 307 301 331 295 275 337 2 10 278 320 272 271 270 268 263 257 258 256 258
355 348 341 341 339 340 347 356 356 357 12 42 38 17 341 321 335 302 33 1 347 343 256 354 334 315 299 319 311 290 276 263 258 267 276 285 265 283 271 300 305 281 249 246 251 255 251
325 326 328 331 336 338 337 344 354 355 354 6 8 6 340 289 301 297 293 305 294 294 277 299 309 283 325 320 312 286 261 253 248 244 233 241 232 242 275 289 264 264 350 283 263 264 247
319 324 327 329 330 327 325 330 331 330 339 341 334 319 237 271 278 285 246 267 300 292 274 277 284 280 321 325 302 298 252 239 238 234 234 225 233 245 244 230 272 291 279 227 195 285 184
340 334 329 328 330 331 338 343 342 339 319 317 316 302 269 278 249 224 284 274 275 301 291 252 298 312 317 266 253 259 267 327 265 216 339 215 217 223 221 238 254 74 350 316 155 250 56
349 348 343 337 332 329 327 326 327 328 327 313 305 296 279 263 268 236 239 253 240 258 261 293 316 316 257 263 251 258 253 295 266 258 209 141 189 215 224 240 266 325 299 185 270 6 357
321 321 320 325 322 318 318 318 321 322 318 309 297 297 281 269 275 263 248 244 255 242 246 321 312 213 249 245 258 280 276 3 293 327 310 267 218 212 224 237 247 19 347 298 340 322 336
311 314 314 316 313 311 312 313 318 319 308 299 294 298 294 273 268 283 280 264 237 251 255 220 241 255 267 265 252 287 283 304 300 287 302 284 258 323 313 275 309 313 307 305 326 314 326
Height
1569 1568 1568 1567 1566 1565 1564 1563 1561 1560 1558 1556 1554 1552 1550 1547 1545 1542 1540 1538 1536 1534 1533 1533 1532 1532 1532 1531 1529 1527 1527 1526 1525 1523 1521 1521 1521 1520 1518 1519 1519 1515 1511 1509 1506 1503 1501
1570 1570 1569 1568 1568 1566 1565 1564 1562 1560 1559 1557 1555 1552 1550 1547 1545 1542 1540 1537 1535 1533 1532 1531 1531 1530 1531 1531 1526 1526 1526 1526 1524 1522 1521 1520 1520 1520 1520 1519 1517 1514 1512 1505 1500 1498 1496
1572 1571 1570 1569 1569 1567 1567 1565 1563 1561 1559 1557 1555 1552 1550 1547 1544 1542 1539 1536 1534 1532 1531 1530 1529 1529 1529 1528 1525 1525 1525 1524 1523 1522 1521 1520 1519 1520 1519 1518 1517 1514 1508 1499 1494 1496 1493
1573 1572 1571 1570 1569 1568 1567 1566 1564 1562 1560 1558 1555 1552 1550 1547 1544 1541 1538 1535 1532 1530 1529 1529 1529 1528 1526 1524 1523 1524 1523 1522 1521 1520 1519 1519 1518 1518 1518 1516 1515 1511 1510 1497 1488 1494 1491
1574 1573 1572 1571 1569 1568 1566 1565 1563 1562 1560 1558 1555 1552 1549 1546 1543 1540 1537 1534 1530 1528 1528 1527 1528 1528 1525 1522 1522 1522 1522 1521 1520 1518 1518 1518 1518 1518 1517 1512 1506 1509 1502 1498 1491 1492 1491
1574 1573 1572 1570 1568 1567 1565 1563 1562 1560 1558 1556 1554 1551 1548 1545 1542 1540 1536 1532 1529 1527 1527 1527 1525 1530 1524 1522 1520 1520 1520 1519 1519 1518 1518 1518 1517 1514 1514 1507 1504 1503 1502 1494 1493 1485 1488
1575 1573 1572 1570 1568 1567 1565 1563 1561 1559 1557 1555 1552 1549 1547 1544 1541 1538 1536 1532 1532 1529 1525 1524 1523 1522 1520 1520 1519 1518 1518 1518 1518 1518 1515 1517 1512 1503 1505 1509 1508 1507 1504 1496 1484 1485 1487
1575 1573 1571 1569 1567 1565 1564 1562 1560 1558 1556 1553 1551 1548 1545 1542 1539 1537 1535 1533 1533 1534 1524 1518 1517 1518 1519 1518 1518 1517 1518 1519 1517 1514 1515 1514 1504 1504 1508 1508 1508 1503 1500 1488 1481 1484 1487
1574 1572 1570 1568 1566 1564 1562 1560 1558 1555 1553 1551 1549 1546 1544 1541 1538 1537 1535 1534 1531 1529 1527 1517 1515 1515 1517 1518 1516 1515 1516 1515 1515 1514 1512 1509 1502 1506 1507 1502 1501 1491 1494 1487 1491 1483 1483
1573 1571 1569 1567 1564 1562 1559 1556 1554 1552 1550 1548 1546 1543 1542 1540 1539 1535 1534 1533 1530 1528 1526 1514 1514 1514 1515 1515 1516 1514 1514 1516 1514 1511 1510 1506 1504 1504 1503 1500 1499 1491 1491 1493 1488 1484 1477
1571 1568 1565 1562 1560 1558 1556 1554 1552 1549 1546 1545 1543 1540 1538 1536 1536 1535 1535 1532 1531 1530 1534 1514 1512 1511 1511 1514 1514 1513 1514 1514 1509 1508 1512 1498 1501 1502 1499 1495 1499 1489 1492 1491 1489 1482 1486
1569 1566 1563 1561 1558 1556 1553 1550 1547 1544 1541 1539 1538 1536 1534 1533 1533 1533 1531 1531 1531 1532 1530 1509 1510 1511 1510 1509 1510 1510 1511 1512 1511 1509 1508 1501 1503 1503 1496 1497 1497 1493 1489 1490 1489 1480 1475
1567 1565 1562 1559 1557 1554 1551 1548 1545 1541 1538 1535 1534 1531 1530 1529 1530 1531 1530 1531 1532 1530 1510 1508 1507 1509 1509 1505 1507 1507 1507 1506 1503 1506 1496 1497 1496 1497 1497 1494 1495 1491 1482 1482 1479 1478 1470
1566 1563 1560 1558 1555 1552 1548 1545 1541 1538 1535 1531 1530 1528 1526 1525 1525 1528 1530 1530 1531 1510 1505 1504 1506 1508 1506 1502 1502 1505 1504 1499 1501 1502 1497 1495 1492 1491 1493 1492 1490 1492 1489 1488 1494 1483 1474
1565 1564 1561 1557 1555 1551 1547 1543 1539 1535 1530 1526 1523 1522 1521 1521 1522 1524 1529 1530 1516 1507 1503 1502 1506 1504 1499 1502 1503 1502 1500 1493 1490 1493 1491 1494 1487 1490 1492 1493 1494 1492 1490 1495 1490 1498 1494
1565 1563 1561 1558 1555 1551 1547 1542 1538 1534 1529 1525 1522 1520 1519 1519 1520 1524 1525 1518 1512 1511 1509 1505 1501 1497 1496 1497 1501 1500 1492 1489 1490 1494 1495 1491 1490 1488 1492 1494 1495 1491 1493 1492 1493 1490 1480
1565 1563 1561 1558 1554 1551 1547 1542 1537 1532 1527 1522 1520 1521 1522 1519 1521 1525 1523 1520 1516 1511 1510 1509 1502 1499 1496 1496 1497 1494 1487 1489 1491 1494 1495 1494 1493 1487 1491 1487 1480 1491 1488 1492 1490 1488 1480
1566 1564 1562 1559 1556 1552 1549 1544 1538 1532 1526 1523 1521 1523 1523 1523 1524 1523 1520 1523 1521 1514 1511 1509 1506 1504 1499 1498 1493 1495 1489 1487 1492 1491 1491 1492 1491 1488 1478 1487 1488 1486 1482 1481 1479 1485 1486
1566 1565 1562 1560 1557 1552 1549 1545 1540 1534 1528 1525 1526 1525 1524 1523 1522 1523 1523 1522 1519 1517 1513 1510 1508 1509 1505 1502 1497 1492 1493 1496 1494 1493 1491 1492 1490 1486 1477 1485 1487 1484 1483 1484 1485 1484 1477
1567 1566 1564 1560 1557 1554 1550 1547 1542 1536 1532 1528 1529 1529 1529 1526 1527 1530 1528 1523 1518 1517 1517 1516 1513 1510 1509 1503 1501 1493 1493 1497 1497 1496 1494 1492 1487 1480 1475 1472 1480 1480 1479 1481 1479 1477 1467
1565 1564 1563 1559 1557 1555 1552 1549 1544 1538 1534 1532 1532 1536 1538 1534 1530 1534 1531 1525 1521 1520 1518 1517 1517 1519 1518 1510 1503 1498 1502 1500 1497 1496 1496 1495 1486 1488 1481 1481 1482 1479 1477 1475 1475 1471 1467
1565 1564 1561 1559 1556 1556 1551 1548 1545 1541 1537 1533 1538 1542 1538 1537 1535 1533 1529 1529 1527 1525 1524 1518 1521 1521 1520 1517 1513 1511 1509 1505 1501 1498 1495 1497 1486 1490 1486 1482 1480 1476 1471 1467 1464 1459 1454
1564 1563 1561 1558 1557 1555 1552 1549 1546 1542 1541 1538 1540 1541 1541 1539 1535 1533 1532 1531 1529 1529 1524 1524 1524 1521 1516 1514 1515 1512 1510 1507 1503 1501 1498 1497 1491 1487 1474 1477 1479 1468 1454 1452 1446 1445 1446
1562 1560 1558 1557 1556 1554 1553 1550 1547 1545 1541 1542 1541 1541 1541 1535 1536 1531 1533 1532 1528 1529 1528 1524 1522 1520 1517 1512 1506 1501 1496 1493 1492 1488 1493 1488 1491 1492 1480 1480 1477 1444 1445 1446 1445 1438 1438
1560 1558 1555 1554 1552 1551 1550 1548 1545 1546 1544 1541 1540 1541 1540 1535 1536 1531 1529 1528 1527 1526 1525 1521 1520 1518 1515 1512 1503 1492 1481 1481 1473 1476 1479 1482 1486 1482 1477 1465 1448 1445 1438 1442 1442 1430 1435
1557 1555 1555 1553 1550 1549 1548 1546 1543 1542 1542 1540 1539 1538 1538 1535 1528 1529 1528 1527 1524 1521 1520 1518 1516 1514 1514 1509 1504 1493 1478 1473 1466 1468 1474 1475 1480 1478 1468 1468 1450 1437 1438 1437 1438 1440 1435
1557 1555 1554 1551 1550 1548 1546 1544 1542 1540 1538 1537 1536 1535 1534 1531 1526 1526 1526 1523 1522 1521 1519 1517 1515 1512 1511 1506 1500 1490 1482 1479 1473 1465 1467 1473 1476 1472 1467 1462 1442 1438 1438 1439 1441 1445 1442
1554 1553 1552 1549 1548 1546 1543 1541 1539 1536 1535 1534 1532 1531 1530 1525 1521 1520 1521 1520 1518 1518 1515 1514 1514 1511 1509 1505 1498 1489 1486 1486 1487 1479 1472 1467 1463 1464 1465 1460 1452 1446 1443 1443 1451 1447 1445
1550 1548 1548 1546 1543 1542 1541 1538 1534 1532 1531 1530 1527 1526 1525 1522 1516 1515 1513 1512 1509 1510 1513 1512 1510 1509 1505 1503 1500 1497 1492 1491 1489 1485 1477 1476 1467 1474 1476 1442 1442 1448 1449 1451 1453 1451 1446